Location: Baia Mare
(47.6567°N, 23.5850°E)
Time: 14:19:10
(UTC+03:00)

ISS - Pass Details

Date: 17 July 2019
Orbit: 409 x 418 km, 51.6° (Epoch: 21 July)

Event Time Altitude Azimuth Distance (km) Brightness Sun altitude
Rises 01:42:54 0° 277° (W) 2,349 0.1 -21.0°
Reaches altitude 10° 01:45:04 10° 285° (WNW) 1,485 -0.8 -21.0°
Maximum altitude 01:48:14 40° 357° (N) 628 -2.4 -21.0°
Drops below altitude 10° 01:51:24 10° 69° (ENE) 1,481 -0.7 -20.9°
Sets 01:53:34 0° 77° (ENE) 2,341 0.3 -20.9°
